Time,TemperatureF,DewpointF,PressureIn,WindDirection,WindDirectionDegrees,WindSpeedMPH,WindSpeedGustMPH,Humidity,HourlyPrecipIn,Conditions,Clouds,dailyrainin,SoftwareType,DateUTC
2013-06-08 00:00:00,70.2,66.8,29.80,NE,45,2.0,4.0,89,0.00,,,0.02,Wunderground v.1.15,2013-06-08 05:00:00,
2013-06-08 00:05:00,70.2,66.8,29.80,NE,45,2.0,4.0,89,0.00,,,0.02,Wunderground v.1.15,2013-06-08 05:05:00,
2013-06-08 00:10:00,70.1,66.7,29.80,NE,45,1.0,1.0,89,0.00,,,0.02,Wunderground v.1.15,2013-06-08 05:10:00,
2013-06-08 00:15:00,70.1,66.7,29.80,NE,45,1.0,1.0,89,0.00,,,0.02,Wunderground v.1.15,2013-06-08 05:15:00,
2013-06-08 00:20:00,69.8,66.4,29.80,NE,45,0.0,0.0,89,0.00,,,0.02,Wunderground v.1.15,2013-06-08 05:20:00,
2013-06-08 00:25:00,69.6,66.2,29.80,NE,45,0.0,0.0,89,0.00,,,0.00,Wunderground v.1.15,2013-06-08 05:25:00,
2013-06-08 00:30:00,69.4,66.3,29.80,NE,45,0.0,0.0,90,0.00,,,0.00,Wunderground v.1.15,2013-06-08 05:30:00,
2013-06-08 00:35:00,69.2,66.1,29.80,NE,45,0.0,1.0,90,0.00,,,0.00,Wunderground v.1.15,2013-06-08 05:35:00,
2013-06-08 00:40:00,68.9,66.2,29.80,NE,45,1.0,2.0,91,0.00,,,0.00,Wunderground v.1.15,2013-06-08 05:40:00,
2013-06-08 00:45:00,68.7,66.0,29.80,NE,45,1.0,2.0,91,0.00,,,0.00,Wunderground v.1.15,2013-06-08 05:45:00,
2013-06-08 00:50:00,68.6,66.2,29.80,NE,45,1.0,1.0,92,0.00,,,0.00,Wunderground v.1.15,2013-06-08 05:50:00,
2013-06-08 00:55:00,68.5,66.1,29.80,NE,45,0.0,2.0,92,0.00,,,0.00,Wunderground v.1.15,2013-06-08 05:55:00,
2013-06-08 01:00:00,68.4,66.0,29.80,NE,45,0.0,2.0,92,0.00,,,0.00,Wunderground v.1.15,2013-06-08 06:00:00,
2013-06-08 01:05:00,68.3,65.9,29.80,NE,45,0.0,2.0,92,0.00,,,0.00,Wunderground v.1.15,2013-06-08 06:05:00,
2013-06-08 01:10:00,68.3,65.9,29.80,NE,45,1.0,1.0,92,0.00,,,0.00,Wunderground v.1.15,2013-06-08 06:10:00,
2013-06-08 01:15:00,68.2,65.8,29.80,NE,45,1.0,2.0,92,0.00,,,0.00,Wunderground v.1.15,2013-06-08 06:15:00,
2013-06-08 01:25:00,68.1,66.0,29.80,NE,45,0.0,2.0,93,0.00,,,0.00,Wunderground v.1.15,2013-06-08 06:25:00,
2013-06-08 01:30:00,68.1,66.0,29.80,NE,45,1.0,2.0,93,0.00,,,0.00,Wunderground v.1.15,2013-06-08 06:30:00,
2013-06-08 01:35:00,68.1,66.0,29.80,NE,45,1.0,2.0,93,0.00,,,0.00,Wunderground v.1.15,2013-06-08 06:35:00,
2013-06-08 01:40:00,68.0,65.9,29.80,NE,45,1.0,1.0,93,0.00,,,0.00,Wunderground v.1.15,2013-06-08 06:40:00,
2013-06-08 01:45:00,67.9,65.8,29.80,NE,45,0.0,2.0,93,0.00,,,0.00,Wunderground v.1.15,2013-06-08 06:45:00,
2013-06-08 01:50:00,68.0,65.9,29.80,NE,45,1.0,2.0,93,0.00,,,0.00,Wunderground v.1.15,2013-06-08 06:50:00,
2013-06-08 01:55:00,68.2,66.1,29.80,NE,45,1.0,2.0,93,0.00,,,0.00,Wunderground v.1.15,2013-06-08 06:55:00,
2013-06-08 02:00:00,68.1,66.0,29.80,NE,45,1.0,1.0,93,0.00,,,0.00,Wunderground v.1.15,2013-06-08 07:00:00,
2013-06-08 02:05:00,67.9,65.5,29.80,NE,45,0.0,2.0,92,0.00,,,0.00,Wunderground v.1.15,2013-06-08 07:05:00,
2013-06-08 02:10:00,67.9,65.8,29.80,NE,45,1.0,3.0,93,0.00,,,0.00,Wunderground v.1.15,2013-06-08 07:10:00,
2013-06-08 02:15:00,68.2,66.1,29.80,NE,45,1.0,3.0,93,0.00,,,0.00,Wunderground v.1.15,2013-06-08 07:15:00,
2013-06-08 02:20:00,68.2,66.1,29.80,NE,44,1.0,1.0,93,0.00,,,0.00,Wunderground v.1.15,2013-06-08 07:20:00,
2013-06-08 02:25:00,67.9,65.5,29.80,NE,44,0.0,2.0,92,0.00,,,0.00,Wunderground v.1.15,2013-06-08 07:25:00,
2013-06-08 02:30:00,67.6,64.9,29.80,NE,44,0.0,2.0,91,0.00,,,0.00,Wunderground v.1.15,2013-06-08 07:30:00,
2013-06-08 02:35:00,67.4,65.0,29.80,NE,44,0.0,2.0,92,0.00,,,0.00,Wunderground v.1.15,2013-06-08 07:35:00,
2013-06-08 02:40:00,67.1,64.7,29.80,NE,44,0.0,2.0,92,0.00,,,0.00,Wunderground v.1.15,2013-06-08 07:40:00,
2013-06-08 02:45:00,67.0,64.6,29.80,NE,44,0.0,2.0,92,0.00,,,0.00,Wunderground v.1.15,2013-06-08 07:45:00,
2013-06-08 02:50:00,66.9,64.5,29.80,NE,44,0.0,2.0,92,0.00,,,0.00,Wunderground v.1.15,2013-06-08 07:50:00,
2013-06-08 02:55:00,66.8,64.7,29.79,NE,44,0.0,2.0,93,0.00,,,0.00,Wunderground v.1.15,2013-06-08 07:55:00,
2013-06-08 03:00:00,66.8,64.7,29.79,NE,44,0.0,2.0,93,0.00,,,0.00,Wunderground v.1.15,2013-06-08 08:00:00,
2013-06-08 03:05:00,66.7,64.6,29.79,NE,44,0.0,2.0,93,0.00,,,0.00,Wunderground v.1.15,2013-06-08 08:05:00,
2013-06-08 03:10:00,66.6,64.5,29.80,NE,44,0.0,2.0,93,0.00,,,0.00,Wunderground v.1.15,2013-06-08 08:10:00,
2013-06-08 03:15:00,66.4,64.3,29.80,NE,44,0.0,2.0,93,0.00,,,0.00,Wunderground v.1.15,2013-06-08 08:15:00,
2013-06-08 03:20:00,66.3,64.2,29.80,NE,44,0.0,2.0,93,0.00,,,0.00,Wunderground v.1.15,2013-06-08 08:20:00,
2013-06-08 03:25:00,66.2,64.1,29.80,NE,44,0.0,2.0,93,0.00,,,0.00,Wunderground v.1.15,2013-06-08 08:25:00,
2013-06-08 03:30:00,66.1,64.0,29.80,NE,44,0.0,2.0,93,0.00,,,0.00,Wunderground v.1.15,2013-06-08 08:30:00,
2013-06-08 03:35:00,66.0,63.9,29.80,NE,44,0.0,2.0,93,0.00,,,0.00,Wunderground v.1.15,2013-06-08 08:35:00,
2013-06-08 03:40:00,65.9,64.1,29.80,NE,44,0.0,2.0,94,0.00,,,0.00,Wunderground v.1.15,2013-06-08 08:40:00,
2013-06-08 03:45:00,65.8,63.7,29.80,NE,44,0.0,2.0,93,0.00,,,0.00,Wunderground v.1.15,2013-06-08 08:45:00,
2013-06-08 03:50:00,65.8,64.0,29.80,NE,44,0.0,2.0,94,0.00,,,0.00,Wunderground v.1.15,2013-06-08 08:50:00,
2013-06-08 03:55:00,65.7,63.9,29.80,NE,44,0.0,2.0,94,0.00,,,0.00,Wunderground v.1.15,2013-06-08 08:55:00,
2013-06-08 04:00:00,65.7,63.9,29.80,NE,44,0.0,2.0,94,0.00,,,0.00,Wunderground v.1.15,2013-06-08 09:00:00,
2013-06-08 04:05:00,65.8,64.0,29.80,NE,44,0.0,2.0,94,0.00,,,0.00,Wunderground v.1.15,2013-06-08 09:05:00,
2013-06-08 04:10:00,65.8,64.0,29.80,NE,44,0.0,2.0,94,0.00,,,0.00,Wunderground v.1.15,2013-06-08 09:10:00,
2013-06-08 04:15:00,65.7,63.9,29.80,NE,44,0.0,2.0,94,0.00,,,0.00,Wunderground v.1.15,2013-06-08 09:15:00,
2013-06-08 04:20:00,65.7,63.9,29.80,NE,44,0.0,2.0,94,0.00,,,0.00,Wunderground v.1.15,2013-06-08 09:20:00,
2013-06-08 04:25:00,65.6,63.8,29.80,NE,44,0.0,2.0,94,0.00,,,0.00,Wunderground v.1.15,2013-06-08 09:25:00,
2013-06-08 04:30:00,65.5,63.7,29.80,NE,44,0.0,2.0,94,0.00,,,0.00,Wunderground v.1.15,2013-06-08 09:30:00,
2013-06-08 04:35:00,65.5,63.7,29.80,NE,44,0.0,2.0,94,0.00,,,0.00,Wunderground v.1.15,2013-06-08 09:35:00,
2013-06-08 04:40:00,65.5,63.7,29.80,NE,44,0.0,2.0,94,0.00,,,0.00,Wunderground v.1.15,2013-06-08 09:40:00,
2013-06-08 04:45:00,65.6,64.1,29.80,NE,44,1.0,2.0,95,0.00,,,0.00,Wunderground v.1.15,2013-06-08 09:45:00,
2013-06-08 04:50:00,65.7,64.2,29.80,NE,45,2.0,2.0,95,0.00,,,0.00,Wunderground v.1.15,2013-06-08 09:50:00,
2013-06-08 04:55:00,66.2,64.7,29.79,NE,45,2.0,2.0,95,0.00,,,0.00,Wunderground v.1.15,2013-06-08 09:55:00,
2013-06-08 05:00:00,66.7,65.2,29.79,NE,44,2.0,2.0,95,0.00,,,0.00,Wunderground v.1.15,2013-06-08 10:00:00,
2013-06-08 05:05:00,66.9,65.4,29.79,NE,51,2.0,2.0,95,0.00,,,0.00,Wunderground v.1.15,2013-06-08 10:05:00,
2013-06-08 05:10:00,67.0,65.5,29.79,NE,44,2.0,2.0,95,0.00,,,0.00,Wunderground v.1.15,2013-06-08 10:10:00,
2013-06-08 05:20:00,67.1,65.6,29.79,NE,44,1.0,1.0,95,0.00,,,0.00,Wunderground v.1.15,2013-06-08 10:20:00,
2013-06-08 05:25:00,67.0,65.5,29.79,NE,44,1.0,1.0,95,0.00,,,0.00,Wunderground v.1.15,2013-06-08 10:25:00,
2013-06-08 05:30:00,67.0,65.2,29.79,ENE,57,1.0,1.0,94,0.00,,,0.00,Wunderground v.1.15,2013-06-08 10:30:00,
2013-06-08 05:35:00,67.1,65.3,29.79,NE,40,1.0,4.0,94,0.00,,,0.00,Wunderground v.1.15,2013-06-08 10:35:00,
2013-06-08 05:40:00,67.0,65.2,29.80,NE,40,1.0,1.0,94,0.00,,,0.00,Wunderground v.1.15,2013-06-08 10:40:00,
2013-06-08 05:45:00,66.8,65.0,29.80,NE,40,0.0,4.0,94,0.00,,,0.00,Wunderground v.1.15,2013-06-08 10:45:00,
2013-06-08 05:50:00,66.8,65.0,29.80,NE,40,0.0,4.0,94,0.00,,,0.00,Wunderground v.1.15,2013-06-08 10:50:00,
2013-06-08 05:55:00,66.7,64.9,29.81,NE,40,0.0,4.0,94,0.00,,,0.00,Wunderground v.1.15,2013-06-08 10:55:00,
2013-06-08 06:00:00,66.6,64.8,29.81,NE,40,0.0,4.0,94,0.00,,,0.00,Wunderground v.1.15,2013-06-08 11:00:00,
2013-06-08 06:05:00,66.6,64.8,29.81,NE,40,0.0,4.0,94,0.00,,,0.00,Wunderground v.1.15,2013-06-08 11:05:00,
2013-06-08 06:10:00,66.7,64.9,29.81,NE,40,1.0,4.0,94,0.00,,,0.00,Wunderground v.1.15,2013-06-08 11:10:00,
2013-06-08 06:15:00,66.6,64.8,29.81,NE,40,1.0,4.0,94,0.00,,,0.00,Wunderground v.1.15,2013-06-08 11:15:00,
2013-06-08 06:20:00,66.7,64.9,29.81,NE,40,1.0,4.0,94,0.00,,,0.00,Wunderground v.1.15,2013-06-08 11:20:00,
2013-06-08 06:25:00,66.8,65.0,29.81,NE,40,2.0,4.0,94,0.00,,,0.00,Wunderground v.1.15,2013-06-08 11:25:00,
2013-06-08 06:30:00,66.9,65.4,29.81,NE,40,2.0,2.0,95,0.00,,,0.00,Wunderground v.1.15,2013-06-08 11:30:00,
2013-06-08 06:35:00,67.0,65.5,29.81,NE,44,2.0,4.0,95,0.00,,,0.00,Wunderground v.1.15,2013-06-08 11:35:00,
2013-06-08 06:40:00,67.1,65.3,29.81,NE,44,2.0,4.0,94,0.00,,,0.00,Wunderground v.1.15,2013-06-08 11:40:00,
2013-06-08 06:45:00,67.3,65.5,29.81,NE,44,1.0,4.0,94,0.00,,,0.00,Wunderground v.1.15,2013-06-08 11:45:00,
2013-06-08 06:50:00,67.4,65.9,29.81,NE,44,1.0,4.0,95,0.00,,,0.00,Wunderground v.1.15,2013-06-08 11:50:00,
2013-06-08 06:55:00,67.6,66.1,29.82,NE,44,1.0,4.0,95,0.00,,,0.00,Wunderground v.1.15,2013-06-08 11:55:00,
2013-06-08 07:00:00,67.9,66.4,29.82,NE,44,1.0,1.0,95,0.00,,,0.00,Wunderground v.1.15,2013-06-08 12:00:00,
2013-06-08 07:05:00,68.1,66.6,29.82,NE,44,1.0,4.0,95,0.00,,,0.00,Wunderground v.1.15,2013-06-08 12:05:00,
2013-06-08 07:10:00,68.3,66.8,29.83,NE,40,1.0,1.0,95,0.00,,,0.00,Wunderground v.1.15,2013-06-08 12:10:00,
2013-06-08 07:15:00,68.5,66.7,29.83,NNE,32,2.0,2.0,94,0.00,,,0.00,Wunderground v.1.15,2013-06-08 12:15:00,
2013-06-08 07:20:00,68.9,67.1,29.83,NE,35,2.0,4.0,94,0.00,,,0.00,Wunderground v.1.15,2013-06-08 12:20:00,
2013-06-08 07:25:00,69.2,67.4,29.83,ENE,61,2.0,4.0,94,0.00,,,0.00,Wunderground v.1.15,2013-06-08 12:25:00,
2013-06-08 07:30:00,69.7,67.9,29.83,NE,53,2.0,4.0,94,0.00,,,0.00,Wunderground v.1.15,2013-06-08 12:30:00,
2013-06-08 07:35:00,70.1,68.3,29.83,NE,42,2.0,4.0,94,0.00,,,0.00,Wunderground v.1.15,2013-06-08 12:35:00,
2013-06-08 07:40:00,70.4,68.3,29.84,NE,45,1.0,4.0,93,0.00,,,0.00,Wunderground v.1.15,2013-06-08 12:40:00,
2013-06-08 07:45:00,70.7,68.6,29.84,NE,35,1.0,4.0,93,0.00,,,0.00,Wunderground v.1.15,2013-06-08 12:45:00,
2013-06-08 07:50:00,71.0,68.6,29.84,NE,50,1.0,4.0,92,0.00,,,0.00,Wunderground v.1.15,2013-06-08 12:50:00,
2013-06-08 07:55:00,71.4,69.0,29.84,NE,42,1.0,4.0,92,0.00,,,0.00,Wunderground v.1.15,2013-06-08 12:55:00,
2013-06-08 08:05:00,72.0,68.9,29.84,NE,40,2.0,4.0,90,0.00,,,0.00,Wunderground v.1.15,2013-06-08 13:05:00,
2013-06-08 08:10:00,72.2,69.1,29.84,NE,52,1.0,4.0,90,0.00,,,0.00,Wunderground v.1.15,2013-06-08 13:10:00,
2013-06-08 08:15:00,72.5,69.1,29.84,ENE,70,1.0,4.0,89,0.00,,,0.00,Wunderground v.1.15,2013-06-08 13:15:00,
2013-06-08 08:20:00,72.9,69.5,29.84,NE,40,1.0,4.0,89,0.00,,,0.00,Wunderground v.1.15,2013-06-08 13:20:00,
2013-06-08 08:25:00,73.2,69.4,29.85,SSE,164,1.0,4.0,88,0.00,,,0.00,Wunderground v.1.15,2013-06-08 13:25:00,
2013-06-08 08:30:00,73.5,69.7,29.85,ENE,58,1.0,4.0,88,0.00,,,0.00,Wunderground v.1.15,2013-06-08 13:30:00,
2013-06-08 08:35:00,73.9,69.8,29.85,ENE,69,1.0,4.0,87,0.00,,,0.00,Wunderground v.1.15,2013-06-08 13:35:00,
2013-06-08 08:40:00,74.4,70.3,29.84,NNE,33,1.0,4.0,87,0.00,,,0.00,Wunderground v.1.15,2013-06-08 13:40:00,
2013-06-08 08:45:00,74.8,70.3,29.84,NE,47,2.0,4.0,86,0.00,,,0.00,Wunderground v.1.15,2013-06-08 13:45:00,
2013-06-08 08:50:00,75.2,70.7,29.84,NE,50,2.0,5.0,86,0.00,,,0.00,Wunderground v.1.15,2013-06-08 13:50:00,
2013-06-08 08:55:00,75.7,70.9,29.84,NE,52,2.0,5.0,85,0.00,,,0.00,Wunderground v.1.15,2013-06-08 13:55:00,
2013-06-08 09:00:00,76.2,70.7,29.84,South,175,2.0,4.0,83,0.00,,,0.00,Wunderground v.1.15,2013-06-08 14:00:00,
2013-06-08 09:05:00,76.6,71.0,29.84,SSW,207,2.0,4.0,83,0.00,,,0.00,Wunderground v.1.15,2013-06-08 14:05:00,
2013-06-08 09:10:00,77.1,71.2,29.85,NNE,24,2.0,5.0,82,0.00,,,0.00,Wunderground v.1.15,2013-06-08 14:10:00,
2013-06-08 09:15:00,77.6,71.7,29.85,ENE,58,2.0,5.0,82,0.00,,,0.00,Wunderground v.1.15,2013-06-08 14:15:00,
2013-06-08 09:20:00,78.3,71.6,29.85,SE,134,1.0,4.0,80,0.00,,,0.00,Wunderground v.1.15,2013-06-08 14:20:00,
2013-06-08 09:25:00,78.8,71.7,29.85,SSE,161,1.0,4.0,79,0.00,,,0.00,Wunderground v.1.15,2013-06-08 14:25:00,
2013-06-08 09:30:00,79.2,71.7,29.85,East,101,1.0,4.0,78,0.00,,,0.00,Wunderground v.1.15,2013-06-08 14:30:00,
2013-06-08 09:35:00,79.9,72.0,29.85,NNE,29,1.0,4.0,77,0.00,,,0.00,Wunderground v.1.15,2013-06-08 14:35:00,
2013-06-08 09:40:00,80.6,72.3,29.84,NNE,26,1.0,4.0,76,0.00,,,0.00,Wunderground v.1.15,2013-06-08 14:40:00,
2013-06-08 09:45:00,81.0,71.5,29.84,South,173,2.0,4.0,73,0.00,,,0.00,Wunderground v.1.15,2013-06-08 14:45:00,
2013-06-08 09:50:00,81.1,72.4,29.84,SSE,157,2.0,2.0,75,0.00,,,0.00,Wunderground v.1.15,2013-06-08 14:50:00,
2013-06-08 09:55:00,81.3,72.6,29.85,SW,220,2.0,4.0,75,0.00,,,0.00,Wunderground v.1.15,2013-06-08 14:55:00,
2013-06-08 10:00:00,81.7,71.8,29.85,SSE,163,1.0,4.0,72,0.00,,,0.00,Wunderground v.1.15,2013-06-08 15:00:00,
2013-06-08 10:05:00,81.9,71.6,29.85,NE,48,2.0,4.0,71,0.00,,,0.00,Wunderground v.1.15,2013-06-08 15:05:00,
2013-06-08 10:10:00,82.0,72.1,29.84,NNE,33,2.0,4.0,72,0.00,,,0.00,Wunderground v.1.15,2013-06-08 15:10:00,
2013-06-08 10:15:00,82.7,72.7,29.84,South,180,1.0,4.0,72,0.00,,,0.00,Wunderground v.1.15,2013-06-08 15:15:00,
2013-06-08 10:20:00,83.2,72.0,29.84,South,176,1.0,4.0,69,0.00,,,0.00,Wunderground v.1.15,2013-06-08 15:20:00,
2013-06-08 10:25:00,83.6,72.8,29.85,South,178,1.0,4.0,70,0.00,,,0.00,Wunderground v.1.15,2013-06-08 15:25:00,
2013-06-08 10:30:00,83.6,72.8,29.85,South,180,2.0,2.0,70,0.00,,,0.00,Wunderground v.1.15,2013-06-08 15:30:00,
2013-06-08 10:35:00,84.1,72.4,29.85,ENE,64,2.0,4.0,68,0.00,,,0.00,Wunderground v.1.15,2013-06-08 15:35:00,
2013-06-08 10:40:00,84.4,71.8,29.85,SSE,156,2.0,4.0,66,0.00,,,0.00,Wunderground v.1.15,2013-06-08 15:40:00,
2013-06-08 10:45:00,84.0,71.9,29.85,East,98,2.0,4.0,67,0.00,,,0.00,Wunderground v.1.15,2013-06-08 15:45:00,
2013-06-08 10:55:00,85.1,71.1,29.85,South,174,2.0,4.0,63,0.00,,,0.00,Wunderground v.1.15,2013-06-08 15:55:00,
2013-06-08 11:00:00,85.0,71.5,29.85,South,179,2.0,2.0,64,0.00,,,0.00,Wunderground v.1.15,2013-06-08 16:00:00,
2013-06-08 11:05:00,85.4,70.9,29.85,SSE,160,2.0,4.0,62,0.00,,,0.00,Wunderground v.1.15,2013-06-08 16:05:00,
2013-06-08 11:10:00,86.0,71.9,29.85,SSE,166,2.0,5.0,63,0.00,,,0.00,Wunderground v.1.15,2013-06-08 16:10:00,
2013-06-08 11:15:00,86.0,71.0,29.85,South,173,2.0,5.0,61,0.00,,,0.00,Wunderground v.1.15,2013-06-08 16:15:00,
2013-06-08 11:20:00,86.1,71.1,29.85,SSE,163,2.0,2.0,61,0.00,,,0.00,Wunderground v.1.15,2013-06-08 16:20:00,
2013-06-08 11:30:00,86.8,70.8,29.85,South,180,1.0,5.0,59,0.00,,,0.00,Wunderground v.1.15,2013-06-08 16:30:00,
2013-06-08 11:35:00,86.2,70.7,29.85,South,184,1.0,5.0,60,0.00,,,0.00,Wunderground v.1.15,2013-06-08 16:35:00,
2013-06-08 11:40:00,86.3,70.3,29.84,WSW,241,2.0,2.0,59,0.00,,,0.00,Wunderground v.1.15,2013-06-08 16:40:00,
2013-06-08 11:45:00,85.9,71.8,29.84,SSE,159,1.0,3.0,63,0.00,,,0.00,Wunderground v.1.15,2013-06-08 16:45:00,
2013-06-08 11:50:00,85.5,71.0,29.84,SSE,165,1.0,4.0,62,0.00,,,0.00,Wunderground v.1.15,2013-06-08 16:50:00,
2013-06-08 11:55:00,85.4,70.9,29.85,South,173,2.0,4.0,62,0.00,,,0.00,Wunderground v.1.15,2013-06-08 16:55:00,
2013-06-08 12:00:00,85.3,71.7,29.85,SSE,148,2.0,2.0,64,0.00,,,0.00,Wunderground v.1.15,2013-06-08 17:00:00,
2013-06-08 12:05:00,85.5,71.0,29.85,SSE,164,2.0,4.0,62,0.00,,,0.00,Wunderground v.1.15,2013-06-08 17:05:00,
2013-06-08 12:10:00,85.6,72.5,29.84,South,173,1.0,4.0,65,0.00,,,0.00,Wunderground v.1.15,2013-06-08 17:10:00,
2013-06-08 12:15:00,85.9,71.4,29.84,SW,234,1.0,4.0,62,0.00,,,0.00,Wunderground v.1.15,2013-06-08 17:15:00,
2013-06-08 12:20:00,85.8,71.3,29.84,ESE,105,2.0,2.0,62,0.00,,,0.00,Wunderground v.1.15,2013-06-08 17:20:00,
2013-06-08 12:25:00,86.1,71.1,29.84,SSE,167,2.0,4.0,61,0.00,,,0.00,Wunderground v.1.15,2013-06-08 17:25:00,
2013-06-08 12:30:00,86.5,71.0,29.84,ENE,73,2.0,2.0,60,0.00,,,0.00,Wunderground v.1.15,2013-06-08 17:30:00,
2013-06-08 12:35:00,87.2,71.1,29.84,WSW,252,2.0,4.0,59,0.00,,,0.00,Wunderground v.1.15,2013-06-08 17:35:00,
2013-06-08 12:40:00,87.4,71.3,29.84,South,172,1.0,4.0,59,0.00,,,0.00,Wunderground v.1.15,2013-06-08 17:40:00,
2013-06-08 12:45:00,87.1,70.0,29.84,WSW,248,2.0,4.0,57,0.00,,,0.00,Wunderground v.1.15,2013-06-08 17:45:00,
2013-06-08 12:50:00,87.1,71.5,29.84,SE,136,2.0,4.0,60,0.00,,,0.00,Wunderground v.1.15,2013-06-08 17:50:00,
2013-06-08 12:55:00,86.9,71.3,29.84,SSW,211,2.0,4.0,60,0.00,,,0.00,Wunderground v.1.15,2013-06-08 17:55:00,
2013-06-08 13:00:00,86.6,72.0,29.84,WNW,292,2.0,2.0,62,0.00,,,0.00,Wunderground v.1.15,2013-06-08 18:00:00,
2013-06-08 13:05:00,86.5,72.4,29.84,SE,130,2.0,4.0,63,0.00,,,0.00,Wunderground v.1.15,2013-06-08 18:05:00,
2013-06-08 13:10:00,86.5,71.9,29.84,SW,234,2.0,2.0,62,0.00,,,0.00,Wunderground v.1.15,2013-06-08 18:10:00,
2013-06-08 13:15:00,86.0,71.0,29.84,WSW,243,1.0,4.0,61,0.00,,,0.00,Wunderground v.1.15,2013-06-08 18:15:00,
2013-06-08 13:20:00,85.9,72.3,29.84,SSE,155,1.0,4.0,64,0.00,,,0.00,Wunderground v.1.15,2013-06-08 18:20:00,
2013-06-08 13:25:00,86.4,72.3,29.83,South,177,1.0,4.0,63,0.00,,,0.00,Wunderground v.1.15,2013-06-08 18:25:00,
2013-06-08 13:30:00,86.8,71.2,29.83,SE,142,2.0,4.0,60,0.00,,,0.00,Wunderground v.1.15,2013-06-08 18:30:00,
2013-06-08 13:35:00,86.9,71.3,29.83,SE,136,2.0,4.0,60,0.00,,,0.00,Wunderground v.1.15,2013-06-08 18:35:00,
2013-06-08 13:40:00,87.1,73.0,29.83,SSE,163,1.0,1.0,63,0.00,,,0.00,Wunderground v.1.15,2013-06-08 18:40:00,
2013-06-08 13:45:00,87.2,72.6,29.83,SSE,168,1.0,4.0,62,0.00,,,0.00,Wunderground v.1.15,2013-06-08 18:45:00,
2013-06-08 13:50:00,87.0,71.4,29.83,WSW,254,1.0,1.0,60,0.00,,,0.00,Wunderground v.1.15,2013-06-08 18:50:00,
2013-06-08 13:55:00,86.7,72.1,29.83,SW,235,1.0,2.0,62,0.00,,,0.00,Wunderground v.1.15,2013-06-08 18:55:00,
2013-06-08 14:00:00,86.1,71.6,29.83,SSW,210,1.0,4.0,62,0.00,,,0.00,Wunderground v.1.15,2013-06-08 19:00:00,
2013-06-08 14:05:00,86.2,71.6,29.83,SSW,209,1.0,4.0,62,0.00,,,0.00,Wunderground v.1.15,2013-06-08 19:05:00,
2013-06-08 14:10:00,86.1,71.6,29.83,SW,231,1.0,4.0,62,0.00,,,0.00,Wunderground v.1.15,2013-06-08 19:10:00,
2013-06-08 14:15:00,86.6,71.1,29.83,SW,230,2.0,4.0,60,0.00,,,0.00,Wunderground v.1.15,2013-06-08 19:15:00,
2013-06-08 14:20:00,86.6,72.5,29.83,WSW,253,2.0,2.0,63,0.00,,,0.00,Wunderground v.1.15,2013-06-08 19:20:00,
2013-06-08 14:30:00,87.6,72.5,29.82,South,178,2.0,4.0,61,0.00,,,0.00,Wunderground v.1.15,2013-06-08 19:30:00,
2013-06-08 14:35:00,86.9,70.8,29.82,WNW,283,2.0,4.0,59,0.00,,,0.00,Wunderground v.1.15,2013-06-08 19:35:00,
2013-06-08 14:40:00,86.7,71.2,29.82,SW,221,2.0,2.0,60,0.00,,,0.00,Wunderground v.1.15,2013-06-08 19:40:00,
2013-06-08 14:45:00,86.6,71.5,29.82,SE,140,2.0,4.0,61,0.00,,,0.00,Wunderground v.1.15,2013-06-08 19:45:00,
2013-06-08 14:50:00,86.9,70.8,29.82,WSW,237,2.0,2.0,59,0.00,,,0.00,Wunderground v.1.15,2013-06-08 19:50:00,
2013-06-08 14:55:00,87.3,71.2,29.81,WSW,237,1.0,4.0,59,0.00,,,0.00,Wunderground v.1.15,2013-06-08 19:55:00,
2013-06-08 15:00:00,87.4,72.3,29.81,SSE,158,1.0,4.0,61,0.00,,,0.00,Wunderground v.1.15,2013-06-08 20:00:00,
2013-06-08 15:05:00,87.3,72.2,29.81,SE,140,1.0,4.0,61,0.00,,,0.00,Wunderground v.1.15,2013-06-08 20:05:00,
2013-06-08 15:10:00,87.0,71.9,29.81,SE,140,1.0,1.0,61,0.00,,,0.00,Wunderground v.1.15,2013-06-08 20:10:00,
2013-06-08 15:15:00,86.8,73.6,29.81,SE,140,0.0,1.0,65,0.00,,,0.00,Wunderground v.1.15,2013-06-08 20:15:00,
2013-06-08 15:20:00,86.6,73.4,29.81,SE,140,0.0,2.0,65,0.00,,,0.00,Wunderground v.1.15,2013-06-08 20:20:00,
2013-06-08 15:25:00,86.6,73.4,29.80,SE,142,1.0,2.0,65,0.00,,,0.00,Wunderground v.1.15,2013-06-08 20:25:00,
2013-06-08 15:35:00,86.2,73.5,29.80,SE,146,1.0,5.0,66,0.00,,,0.00,Wunderground v.1.15,2013-06-08 20:35:00,
2013-06-08 15:40:00,86.8,74.5,29.80,SSE,163,1.0,5.0,67,0.00,,,0.00,Wunderground v.1.15,2013-06-08 20:40:00,
2013-06-08 15:45:00,87.3,72.7,29.80,WSW,240,1.0,5.0,62,0.00,,,0.00,Wunderground v.1.15,2013-06-08 20:45:00,
2013-06-08 15:50:00,87.4,72.8,29.80,WSW,252,1.0,5.0,62,0.00,,,0.00,Wunderground v.1.15,2013-06-08 20:50:00,
2013-06-08 15:55:00,87.5,72.9,29.79,SSW,205,2.0,5.0,62,0.00,,,0.00,Wunderground v.1.15,2013-06-08 20:55:00,
2013-06-08 16:00:00,87.5,73.8,29.79,SSE,157,2.0,5.0,64,0.00,,,0.00,Wunderground v.1.15,2013-06-08 21:00:00,
2013-06-08 16:05:00,87.7,74.5,29.79,South,191,2.0,5.0,65,0.00,,,0.00,Wunderground v.1.15,2013-06-08 21:05:00,
2013-06-08 16:10:00,88.3,74.6,29.80,SSW,207,2.0,2.0,64,0.00,,,0.00,Wunderground v.1.15,2013-06-08 21:10:00,
2013-06-08 16:15:00,88.3,73.6,29.80,SW,234,2.0,5.0,62,0.00,,,0.00,Wunderground v.1.15,2013-06-08 21:15:00,
2013-06-08 16:20:00,88.2,73.0,29.80,SSE,165,2.0,2.0,61,0.00,,,0.00,Wunderground v.1.15,2013-06-08 21:20:00,
2013-06-08 16:25:00,88.3,73.1,29.79,WSW,244,2.0,3.0,61,0.00,,,0.00,Wunderground v.1.15,2013-06-08 21:25:00,
2013-06-08 16:30:00,87.3,72.7,29.79,SSE,163,2.0,2.0,62,0.00,,,0.00,Wunderground v.1.15,2013-06-08 21:30:00,
2013-06-08 16:35:00,86.7,73.5,29.79,SSE,167,1.0,5.0,65,0.00,,,0.00,Wunderground v.1.15,2013-06-08 21:35:00,
2013-06-08 16:40:00,86.6,73.0,29.79,South,181,1.0,5.0,64,0.00,,,0.00,Wunderground v.1.15,2013-06-08 21:40:00,
2013-06-08 16:45:00,87.1,73.4,29.79,South,181,1.0,5.0,64,0.00,,,0.00,Wunderground v.1.15,2013-06-08 21:45:00,
2013-06-08 16:50:00,87.6,73.0,29.79,SE,130,1.0,5.0,62,0.00,,,0.00,Wunderground v.1.15,2013-06-08 21:50:00,
2013-06-08 16:55:00,87.2,73.5,29.80,SSE,147,2.0,5.0,64,0.00,,,0.00,Wunderground v.1.15,2013-06-08 21:55:00,
2013-06-08 17:05:00,85.8,73.1,29.80,SSW,209,1.0,5.0,66,0.00,,,0.00,Wunderground v.1.15,2013-06-08 22:05:00,
2013-06-08 17:10:00,85.4,72.7,29.80,SSE,157,1.0,5.0,66,0.00,,,0.00,Wunderground v.1.15,2013-06-08 22:10:00,
2013-06-08 17:15:00,85.1,72.9,29.80,SE,129,1.0,5.0,67,0.00,,,0.00,Wunderground v.1.15,2013-06-08 22:15:00,
2013-06-08 17:20:00,85.5,73.3,29.80,SSW,199,1.0,5.0,67,0.00,,,0.00,Wunderground v.1.15,2013-06-08 22:20:00,
2013-06-08 17:25:00,85.6,72.9,29.79,SSE,164,1.0,5.0,66,0.00,,,0.00,Wunderground v.1.15,2013-06-08 22:25:00,
2013-06-08 17:30:00,86.0,73.3,29.79,SSE,163,1.0,5.0,66,0.00,,,0.00,Wunderground v.1.15,2013-06-08 22:30:00,
2013-06-08 17:35:00,86.6,72.5,29.79,SSE,167,1.0,5.0,63,0.00,,,0.00,Wunderground v.1.15,2013-06-08 22:35:00,
2013-06-08 17:40:00,86.8,72.7,29.79,SW,226,2.0,2.0,63,0.00,,,0.00,Wunderground v.1.15,2013-06-08 22:40:00,
2013-06-08 17:45:00,87.0,72.9,29.79,SSE,152,2.0,5.0,63,0.00,,,0.00,Wunderground v.1.15,2013-06-08 22:45:00,
2013-06-08 17:50:00,87.0,72.4,29.79,SE,129,2.0,5.0,62,0.00,,,0.00,Wunderground v.1.15,2013-06-08 22:50:00,
2013-06-08 17:55:00,86.8,72.2,29.79,SSW,209,2.0,5.0,62,0.00,,,0.00,Wunderground v.1.15,2013-06-08 22:55:00,
2013-06-08 18:00:00,86.4,71.8,29.79,South,174,2.0,5.0,62,0.00,,,0.00,Wunderground v.1.15,2013-06-08 23:00:00,
2013-06-08 18:05:00,85.6,72.0,29.79,SW,216,3.0,5.0,64,0.00,,,0.00,Wunderground v.1.15,2013-06-08 23:05:00,
2013-06-08 18:10:00,84.6,71.5,29.79,West,273,3.0,5.0,65,0.00,,,0.00,Wunderground v.1.15,2013-06-08 23:10:00,
2013-06-08 18:15:00,83.5,71.4,29.79,SSE,155,4.0,5.0,67,0.00,,,0.00,Wunderground v.1.15,2013-06-08 23:15:00,
2013-06-08 18:20:00,82.7,71.5,29.79,SW,226,3.0,3.0,69,0.00,,,0.00,Wunderground v.1.15,2013-06-08 23:20:00,
2013-06-08 18:25:00,82.0,71.2,29.80,West,266,2.0,5.0,70,0.00,,,0.00,Wunderground v.1.15,2013-06-08 23:25:00,
2013-06-08 18:30:00,81.5,71.2,29.80,SW,223,2.0,2.0,71,0.00,,,0.00,Wunderground v.1.15,2013-06-08 23:30:00,
2013-06-08 18:35:00,81.1,71.6,29.80,SSW,196,2.0,5.0,73,0.00,,,0.00,Wunderground v.1.15,2013-06-08 23:35:00,
2013-06-08 18:40:00,80.6,71.5,29.80,SSW,196,2.0,2.0,74,0.00,,,0.00,Wunderground v.1.15,2013-06-08 23:40:00,
2013-06-08 18:45:00,80.2,72.3,29.80,SSW,196,1.0,5.0,77,0.00,,,0.00,Wunderground v.1.15,2013-06-08 23:45:00,
2013-06-08 18:50:00,79.8,72.3,29.80,SSW,196,0.0,5.0,78,0.00,,,0.00,Wunderground v.1.15,2013-06-08 23:50:00,
2013-06-08 18:55:00,79.5,72.8,29.80,SSW,196,0.0,5.0,80,0.00,,,0.00,Wunderground v.1.15,2013-06-08 23:55:00,
2013-06-08 19:00:00,79.1,72.4,29.80,SSW,196,0.0,5.0,80,0.00,,,0.00,Wunderground v.1.15,2013-06-09 00:00:00,
2013-06-08 19:05:00,78.7,72.4,29.80,SSW,196,0.0,5.0,81,0.00,,,0.00,Wunderground v.1.15,2013-06-09 00:05:00,
2013-06-08 19:10:00,78.4,72.4,29.83,SSW,196,0.0,5.0,82,0.00,,,0.00,Wunderground v.1.15,2013-06-09 00:10:00,
2013-06-08 19:15:00,78.2,72.3,29.83,SSW,196,0.0,5.0,82,0.00,,,0.00,Wunderground v.1.15,2013-06-09 00:15:00,
2013-06-08 19:20:00,77.9,72.7,29.83,SSW,196,0.0,5.0,84,0.00,,,0.00,Wunderground v.1.15,2013-06-09 00:20:00,
2013-06-08 19:25:00,77.6,72.4,29.84,SSW,196,0.0,5.0,84,0.00,,,0.00,Wunderground v.1.15,2013-06-09 00:25:00,
2013-06-08 19:30:00,77.2,72.3,29.84,SSW,196,0.0,5.0,85,0.00,,,0.00,Wunderground v.1.15,2013-06-09 00:30:00,
2013-06-08 19:35:00,77.0,72.1,29.84,SSW,196,0.0,5.0,85,0.00,,,0.00,Wunderground v.1.15,2013-06-09 00:35:00,
2013-06-08 19:40:00,76.9,72.4,29.84,SSW,196,1.0,5.0,86,0.00,,,0.00,Wunderground v.1.15,2013-06-09 00:40:00,
2013-06-08 19:45:00,76.6,72.1,29.84,SSW,196,1.0,5.0,86,0.00,,,0.00,Wunderground v.1.15,2013-06-09 00:45:00,
2013-06-08 19:50:00,76.6,72.4,29.84,SSW,196,0.0,5.0,87,0.00,,,0.00,Wunderground v.1.15,2013-06-09 00:50:00,
2013-06-08 19:55:00,76.4,72.6,29.83,SSW,196,1.0,5.0,88,0.00,,,0.00,Wunderground v.1.15,2013-06-09 00:55:00,
2013-06-08 20:00:00,76.2,72.4,29.83,SSW,196,1.0,1.0,88,0.00,,,0.00,Wunderground v.1.15,2013-06-09 01:00:00,
2013-06-08 20:05:00,76.0,72.2,29.83,SSW,196,0.0,5.0,88,0.00,,,0.00,Wunderground v.1.15,2013-06-09 01:05:00,
2013-06-08 20:10:00,75.8,72.0,29.83,SSW,196,0.0,5.0,88,0.00,,,0.00,Wunderground v.1.15,2013-06-09 01:10:00,
2013-06-08 20:15:00,75.6,71.8,29.83,SSW,196,0.0,5.0,88,0.00,,,0.00,Wunderground v.1.15,2013-06-09 01:15:00,
2013-06-08 20:20:00,75.4,71.6,29.83,SSW,196,0.0,5.0,88,0.00,,,0.00,Wunderground v.1.15,2013-06-09 01:20:00,
2013-06-08 20:25:00,75.3,71.8,29.83,SSW,196,0.0,5.0,89,0.00,,,0.00,Wunderground v.1.15,2013-06-09 01:25:00,
2013-06-08 20:30:00,75.1,71.6,29.83,SSW,196,0.0,5.0,89,0.00,,,0.00,Wunderground v.1.15,2013-06-09 01:30:00,
2013-06-08 20:35:00,74.9,71.4,29.83,SSW,196,0.0,5.0,89,0.00,,,0.00,Wunderground v.1.15,2013-06-09 01:35:00,
2013-06-08 20:40:00,74.8,71.3,29.83,SSW,196,0.0,5.0,89,0.00,,,0.00,Wunderground v.1.15,2013-06-09 01:40:00,
2013-06-08 20:45:00,74.6,71.1,29.83,SSW,196,0.0,5.0,89,0.00,,,0.00,Wunderground v.1.15,2013-06-09 01:45:00,
2013-06-08 20:50:00,74.4,71.3,29.83,SSW,196,1.0,1.0,90,0.00,,,0.00,Wunderground v.1.15,2013-06-09 01:50:00,
2013-06-08 20:55:00,74.3,71.2,29.82,SSW,196,0.0,5.0,90,0.00,,,0.00,Wunderground v.1.15,2013-06-09 01:55:00,
2013-06-08 21:00:00,74.1,71.0,29.82,SSW,196,1.0,5.0,90,0.00,,,0.00,Wunderground v.1.15,2013-06-09 02:00:00,
2013-06-08 21:05:00,73.8,70.7,29.82,SSW,196,1.0,5.0,90,0.00,,,0.00,Wunderground v.1.15,2013-06-09 02:05:00,
2013-06-08 21:10:00,73.5,70.7,29.82,SSW,196,1.0,5.0,91,0.00,,,0.00,Wunderground v.1.15,2013-06-09 02:10:00,
2013-06-08 21:15:00,73.3,70.5,29.82,SSW,196,1.0,5.0,91,0.00,,,0.00,Wunderground v.1.15,2013-06-09 02:15:00,
2013-06-08 21:20:00,73.1,70.3,29.82,SSW,196,1.0,1.0,91,0.00,,,0.00,Wunderground v.1.15,2013-06-09 02:20:00,
2013-06-08 21:25:00,73.0,70.2,29.83,SSW,196,0.0,5.0,91,0.00,,,0.00,Wunderground v.1.15,2013-06-09 02:25:00,
2013-06-08 21:30:00,72.8,70.3,29.83,SSW,196,0.0,5.0,92,0.00,,,0.00,Wunderground v.1.15,2013-06-09 02:30:00,
2013-06-08 21:35:00,72.8,70.3,29.83,SSW,196,0.0,5.0,92,0.00,,,0.00,Wunderground v.1.15,2013-06-09 02:35:00,
2013-06-08 21:40:00,72.8,70.3,29.84,SSW,196,0.0,5.0,92,0.00,,,0.00,Wunderground v.1.15,2013-06-09 02:40:00,
2013-06-08 21:45:00,72.8,70.3,29.84,SSW,196,0.0,5.0,92,0.00,,,0.00,Wunderground v.1.15,2013-06-09 02:45:00,
2013-06-08 21:50:00,72.9,70.4,29.84,SSW,196,1.0,5.0,92,0.00,,,0.00,Wunderground v.1.15,2013-06-09 02:50:00,
2013-06-08 21:55:00,72.9,70.4,29.85,SSW,196,1.0,5.0,92,0.00,,,0.00,Wunderground v.1.15,2013-06-09 02:55:00,
2013-06-08 22:00:00,72.9,70.4,29.85,SSW,196,0.0,5.0,92,0.00,,,0.00,Wunderground v.1.15,2013-06-09 03:00:00,
2013-06-08 22:05:00,72.9,70.4,29.85,SSW,196,0.0,5.0,92,0.00,,,0.00,Wunderground v.1.15,2013-06-09 03:05:00,
2013-06-08 22:10:00,72.9,70.4,29.84,NE,55,0.0,5.0,92,0.00,,,0.00,Wunderground v.1.15,2013-06-09 03:10:00,
2013-06-08 22:15:00,72.8,70.0,29.84,ESE,109,1.0,5.0,91,0.00,,,0.00,Wunderground v.1.15,2013-06-09 03:15:00,
2013-06-08 22:20:00,72.9,70.1,29.84,ESE,118,1.0,5.0,91,0.00,,,0.00,Wunderground v.1.15,2013-06-09 03:20:00,
2013-06-08 22:25:00,72.9,70.1,29.85,SSE,149,1.0,5.0,91,0.00,,,0.00,Wunderground v.1.15,2013-06-09 03:25:00,
2013-06-08 22:35:00,72.9,70.1,29.85,South,178,1.0,5.0,91,0.00,,,0.00,Wunderground v.1.15,2013-06-09 03:35:00,
2013-06-08 22:40:00,72.9,70.1,29.86,SSW,196,1.0,5.0,91,0.00,,,0.00,Wunderground v.1.15,2013-06-09 03:40:00,
2013-06-08 22:45:00,72.9,69.8,29.86,SSW,196,0.0,5.0,90,0.00,,,0.00,Wunderground v.1.15,2013-06-09 03:45:00,
2013-06-08 22:50:00,72.8,69.7,29.86,SSW,196,1.0,5.0,90,0.00,,,0.00,Wunderground v.1.15,2013-06-09 03:50:00,
2013-06-08 22:55:00,72.8,69.7,29.87,SSW,196,0.0,5.0,90,0.00,,,0.00,Wunderground v.1.15,2013-06-09 03:55:00,
2013-06-08 23:00:00,72.7,69.6,29.87,SSW,196,0.0,5.0,90,0.00,,,0.00,Wunderground v.1.15,2013-06-09 04:00:00,
2013-06-08 23:05:00,72.5,69.4,29.87,SSE,153,1.0,5.0,90,0.00,,,0.00,Wunderground v.1.15,2013-06-09 04:05:00,
2013-06-08 23:10:00,72.4,69.0,29.87,South,175,1.0,1.0,89,0.00,,,0.00,Wunderground v.1.15,2013-06-09 04:10:00,
2013-06-08 23:15:00,72.2,68.8,29.87,SSE,160,1.0,5.0,89,0.00,,,0.00,Wunderground v.1.15,2013-06-09 04:15:00,
2013-06-08 23:20:00,72.1,68.7,29.87,South,172,1.0,5.0,89,0.00,,,0.00,Wunderground v.1.15,2013-06-09 04:20:00,
2013-06-08 23:25:00,72.0,68.2,29.87,South,180,1.0,5.0,88,0.00,,,0.00,Wunderground v.1.15,2013-06-09 04:25:00,
2013-06-08 23:30:00,71.8,68.1,29.87,SE,128,1.0,5.0,88,0.00,,,0.00,Wunderground v.1.15,2013-06-09 04:30:00,
2013-06-08 23:35:00,71.7,68.0,29.87,SSE,159,1.0,5.0,88,0.00,,,0.00,Wunderground v.1.15,2013-06-09 04:35:00,
2013-06-08 23:40:00,71.5,67.8,29.86,SSE,159,1.0,5.0,88,0.00,,,0.00,Wunderground v.1.15,2013-06-09 04:40:00,
2013-06-08 23:45:00,71.4,68.0,29.86,SSE,168,0.0,5.0,89,0.00,,,0.00,Wunderground v.1.15,2013-06-09 04:45:00,
2013-06-08 23:50:00,71.2,67.8,29.86,SSE,161,1.0,1.0,89,0.00,,,0.00,Wunderground v.1.15,2013-06-09 04:50:00,
2013-06-08 23:55:00,71.1,67.7,29.85,SSE,165,0.0,2.0,89,0.00,,,0.00,Wunderground v.1.15,2013-06-09 04:55:00,